Weather History for Harlan, KY

Change the Weather History Date:

Tuesday, February 5, 2013

  Actual Average (KLOZ) Record (KLOZ)
Temperature  
Mean Temperature 43 °F 37 °F  
Max Temperature 53 °F 47 °F 70 °F (2008)
Min Temperature 33 °F 28 °F 3 °F (1965)
Degree Days  
Heating Degree Days 22 28  
Month to date heating degree days 140  
Since 1 July heating degree days 2703  
Cooling Degree Days 0 0  
Month to date cooling degree days 0  
Year to date cooling degree days 0  
Moisture  
Dew Point 32 °F    
Average Humidity 72    
Maximum Humidity 93    
Minimum Humidity 44    
Precipitation  
Precipitation 0.00 in 0.13 in 2.59 in (2004)
Month to date precipitation 0.64  
Year to date precipitation 4.18  
Sea Level Pressure  
Sea Level Pressure 29.93 in    
Wind  
Wind Speed 2 mph (SW)    
Max Wind Speed 10 mph    
Max Gust Speed 21 mph    
Visibility 10 miles    
Events      
T = Trace of Precipitation, MM = Missing Value Source: NWS Daily Summary

Daily Weather History Graph

Daily Weather History Graph

Search for Another Location

Airport:

Trip Planner

Search our weather history database for the weather conditions in past years. The results will help you decide how hot, cold, wet, or windy it might be!

Date:

Astronomy

Feb. 05, 2013 Rise Set
Actual Time 7:31 AM EST 6:03 PM EST
Civil Twilight 7:04 AM EST 6:30 PM EST
Nautical Twilight 6:34 AM EST 7:01 PM EST
Astronomical Twilight 6:03 AM EST 7:31 PM EST
Moon 3:09 AM EST (2/5) 1:22 PM EST (2/5)
Length of Visible Light 11h 25m
Length of Day
10h 31m
Waning Crescent, 27% of the Moon is Illuminated
Feb 5
Waning Crescent
Feb 10
New
Feb 17
First Quarter
Feb 25
Full
Mar 4
Last Quarter

Hourly Weather History & Observations

Time (EST) Temp. Windchill Dew Point Humidity Pressure Visibility Wind Dir Wind Speed Gust Speed Precip Events Conditions
12:15 AM 35.6 °F - 28.4 °F 75% 29.91 in 10.0 mi Calm Calm - N/A   Overcast
12:35 AM 35.6 °F - 30.2 °F 81% 29.91 in 10.0 mi Calm Calm - N/A   Overcast
12:55 AM 35.6 °F - 30.2 °F 81% 29.91 in 10.0 mi Calm Calm - N/A   Overcast
1:15 AM 35.6 °F 32.8 °F 30.2 °F 81% 29.90 in 10.0 mi NE 3.5 mph - N/A   Overcast
1:35 AM 35.6 °F - 30.2 °F 81% 29.90 in 10.0 mi Calm Calm - N/A   Overcast
1:55 AM 35.6 °F - 28.4 °F 75% 29.90 in 10.0 mi Calm Calm - N/A   Overcast
2:15 AM 35.6 °F - 30.2 °F 81% 29.91 in 10.0 mi Calm Calm - N/A   Overcast
2:35 AM 35.6 °F - 30.2 °F 81% 29.92 in 10.0 mi Calm Calm - N/A   Overcast
2:55 AM 35.6 °F - 30.2 °F 81% 29.91 in 10.0 mi Calm Calm - N/A   Overcast
3:15 AM 35.6 °F - 30.2 °F 81% 29.91 in 10.0 mi Calm Calm - N/A   Overcast
3:35 AM 37.4 °F - 30.2 °F 75% 29.91 in 10.0 mi Calm Calm - N/A   Overcast
3:55 AM 35.6 °F - 30.2 °F 81% 29.91 in 10.0 mi Calm Calm - N/A   Overcast
4:15 AM 35.6 °F - 30.2 °F 81% 29.90 in 10.0 mi Calm Calm - N/A   Overcast
4:35 AM 35.6 °F - 30.2 °F 81% 29.90 in 10.0 mi Calm Calm - N/A   Overcast
4:55 AM 35.6 °F 29.2 °F 30.2 °F 81% 29.91 in 10.0 mi East 8.1 mph - N/A   Overcast
5:15 AM 33.8 °F 28.6 °F 32.0 °F 93% 29.90 in 10.0 mi East 5.8 mph - N/A   Overcast
5:35 AM 35.6 °F - 30.2 °F 81% 29.90 in 10.0 mi Calm Calm - N/A   Overcast
5:55 AM 35.6 °F - 32.0 °F 87% 29.90 in 10.0 mi Calm Calm - N/A   Overcast
6:15 AM 35.6 °F - 32.0 °F 87% 29.91 in 10.0 mi Calm Calm - N/A   Overcast
6:35 AM 35.6 °F - 32.0 °F 87% 29.91 in 10.0 mi Calm Calm - N/A   Overcast
7:15 AM 35.6 °F - 32.0 °F 87% 29.91 in 10.0 mi Calm Calm - N/A   Overcast
7:35 AM 35.6 °F - 32.0 °F 87% 29.92 in 10.0 mi Calm Calm - N/A   Overcast
7:55 AM 35.6 °F - 32.0 °F 87% 29.93 in 10.0 mi Calm Calm - N/A   Overcast
8:15 AM 35.6 °F 32.8 °F 32.0 °F 87% 29.93 in 10.0 mi ESE 3.5 mph - N/A   Overcast
8:35 AM 35.6 °F - 32.0 °F 87% 29.94 in 10.0 mi Calm Calm - N/A   Overcast
8:55 AM 35.6 °F 31.7 °F 32.0 °F 87% 29.94 in 10.0 mi ESE 4.6 mph - N/A   Overcast
9:15 AM 37.4 °F - 32.0 °F 81% 29.95 in 10.0 mi Calm Calm - N/A   Overcast
9:35 AM 37.4 °F - 33.8 °F 87% 29.95 in 10.0 mi Calm Calm - N/A   Overcast
9:55 AM 39.2 °F - 33.8 °F 81% 29.95 in 10.0 mi Calm Calm - N/A   Overcast
10:15 AM 39.2 °F - 33.8 °F 81% 29.96 in 10.0 mi Calm Calm - N/A   Overcast
10:35 AM 41.0 °F 39.0 °F 32.0 °F 70% 29.96 in 10.0 mi NNW 3.5 mph - N/A   Overcast
10:55 AM 41.0 °F - 33.8 °F 76% 29.96 in 10.0 mi Calm Calm - N/A   Overcast
11:15 AM 41.0 °F 39.0 °F 33.8 °F 76% 29.96 in 10.0 mi NNW 3.5 mph - N/A   Overcast
11:35 AM 42.8 °F 40.1 °F 33.8 °F 70% 29.97 in 10.0 mi WSW 4.6 mph - N/A   Overcast
11:55 AM 42.8 °F 40.1 °F 33.8 °F 70% 29.97 in 10.0 mi WSW 4.6 mph - N/A   Overcast
12:15 PM 46.4 °F 43.5 °F 35.6 °F 66% 29.95 in 10.0 mi West 5.8 mph - N/A   Mostly Cloudy
12:35 PM 48.2 °F - 35.6 °F 62% 29.94 in 10.0 mi WSW 6.9 mph 17.3 mph N/A   Scattered Clouds
12:55 PM 48.2 °F - 35.6 °F 62% 29.94 in 10.0 mi SW 9.2 mph 16.1 mph N/A   Overcast
1:15 PM 48.2 °F - 35.6 °F 62% 29.93 in 10.0 mi West 8.1 mph - N/A   Overcast
1:35 PM 48.2 °F - 35.6 °F 62% 29.93 in 10.0 mi West 4.6 mph - N/A   Overcast
1:55 PM 50.0 °F - 33.8 °F 54% 29.92 in 10.0 mi SSW 9.2 mph - N/A   Overcast
2:15 PM 51.8 °F - 33.8 °F 50% 29.91 in 10.0 mi SW 9.2 mph - N/A   Mostly Cloudy
2:35 PM 51.8 °F - 33.8 °F 50% 29.92 in 10.0 mi SW 8.1 mph - N/A   Mostly Cloudy
2:55 PM 51.8 °F - 33.8 °F 50% 29.92 in 10.0 mi WSW 9.2 mph 18.4 mph N/A   Mostly Cloudy
3:15 PM 51.8 °F - 33.8 °F 50% 29.92 in 10.0 mi WSW 5.8 mph 20.7 mph N/A   Scattered Clouds
3:35 PM 53.6 °F - 32.0 °F 44% 29.91 in 10.0 mi WSW 10.4 mph - N/A   Scattered Clouds
3:55 PM 51.8 °F - 32.0 °F 47% 29.91 in 10.0 mi SSW 6.9 mph - N/A   Scattered Clouds
4:15 PM 53.6 °F - 32.0 °F 44% 29.91 in 10.0 mi SW 10.4 mph - N/A   Clear
4:35 PM 53.6 °F - 32.0 °F 44% 29.91 in 10.0 mi West 5.8 mph - N/A   Clear
4:55 PM 51.8 °F - 32.0 °F 47% 29.91 in 10.0 mi WSW 5.8 mph - N/A   Clear
5:15 PM 51.8 °F - 32.0 °F 47% 29.91 in 10.0 mi WSW 8.1 mph - N/A   Clear
5:35 PM 50.0 °F - 32.0 °F 50% 29.91 in 10.0 mi WSW 4.6 mph - N/A   Clear
5:55 PM 50.0 °F - 32.0 °F 50% 29.91 in 10.0 mi Calm Calm - N/A   Clear
6:15 PM 48.2 °F - 32.0 °F 54% 29.91 in 10.0 mi Calm Calm - N/A   Clear
6:35 PM 46.4 °F - 32.0 °F 57% 29.92 in 10.0 mi Calm Calm - N/A   Clear
6:55 PM 44.6 °F - 32.0 °F 61% 29.92 in 10.0 mi Calm Calm - N/A   Clear
7:15 PM 44.6 °F - 32.0 °F 61% 29.93 in 10.0 mi Calm Calm - N/A   Clear
7:35 PM 42.8 °F - 32.0 °F 66% 29.93 in 10.0 mi Calm Calm - N/A   Clear
7:55 PM 42.8 °F - 33.8 °F 70% 29.94 in 10.0 mi Calm Calm - N/A   Clear
8:15 PM 41.0 °F - 32.0 °F 70% 29.94 in 10.0 mi Calm Calm - N/A   Clear
8:35 PM 41.0 °F - 33.8 °F 76% 29.95 in 10.0 mi Calm Calm - N/A   Mostly Cloudy
8:55 PM 39.2 °F - 33.8 °F 81% 29.95 in 10.0 mi Calm Calm - N/A   Scattered Clouds
9:15 PM 39.2 °F - 33.8 °F 81% 29.95 in 10.0 mi Calm Calm - N/A   Clear
9:35 PM 37.4 °F - 32.0 °F 81% 29.96 in 10.0 mi Calm Calm - N/A   Clear
9:55 PM 39.2 °F - 32.0 °F 75% 29.97 in 10.0 mi Calm Calm - N/A   Clear
10:15 PM 37.4 °F 34.9 °F 33.8 °F 87% 29.97 in 10.0 mi ESE 3.5 mph - N/A   Clear
10:35 PM 35.6 °F - 32.0 °F 87% 29.98 in 10.0 mi Calm Calm - N/A   Clear
10:55 PM 37.4 °F - 33.8 °F 87% 29.99 in 10.0 mi Calm Calm - N/A   Scattered Clouds
11:15 PM 37.4 °F - 32.0 °F 81% 29.99 in 10.0 mi Calm Calm - N/A   Scattered Clouds
11:35 PM 35.6 °F - 32.0 °F 87% 30.01 in 10.0 mi Calm Calm - N/A   Clear
11:55 PM 35.6 °F 32.8 °F 32.0 °F 87% 30.01 in 10.0 mi WSW 3.5 mph - N/A   Clear